Wind_Speed
19 19 21 22 23 24 25 26 27 29 29 29 29 29 30 31 32 32 32 33 33 34 35 35 36 37 37 38 39 40 41 42 43 44 44 44 45 46 47 48 49 50 52 53
17 17 19 20 21 22 23 24 25 27 27 27 27 28 28 28 29 30 31 32 32 32 32 33 34 35 36 36 36 37 39 41 42 43 43 44 45 46 46 47 48 49 51 52
15 15 16 17 19 19 20 21 22 22 23 24 25 26 26 26 27 28 29 29 30 31 31 32 33 34 35 35 36 36 37 39 40 41 42 42 43 44 45 46 47 49 50 51
12 13 14 14 15 17 17 17 18 19 20 21 22 23 23 24 25 25 26 27 28 28 30 30 31 32 32 33 33 34 35 35 37 38 39 41 41 42 43 44 45 46 48 49
10 11 12 12 13 13 14 15 16 17 18 19 19 20 20 20 22 22 24 25 25 26 27 28 28 29 29 29 30 31 32 33 33 35 36 38 39 40 41 42 43 44 45 47
8 9 10 10 11 12 12 13 14 15 16 16 16 17 17 17 18 19 21 21 22 23 24 26 26 27 28 29 30 30 31 31 32 33 34 35 37 39 40 41 42 43 43 43
5 6 8 7 8 9 10 10 11 12 14 14 14 15 14 14 15 16 18 19 19 21 22 23 24 26 26 26 26 27 28 29 30 31 32 33 34 36 37 39 40 40 41 42
4 6 6 6 6 7 8 8 9 11 12 12 13 13 12 13 14 14 15 16 18 18 19 21 22 23 23 24 24 25 26 27 27 28 28 29 30 31 32 35 37 37 38 38
3 4 4 5 5 6 7 7 8 9 10 11 11 11 11 11 11 12 13 14 15 16 17 18 18 18 19 20 21 22 22 23 23 24 25 26 27 29 30 31 33 34 35 35
3 3 2 3 3 4 5 6 7 8 9 10 10 10 10 11 12 13 14 14 15 16 17 16 16 16 16 16 17 18 19 20 21 22 22 22 24 26 28 28 28 29 31 32
1 1 1 2 3 4 5 6 7 8 9 9 9 9 10 10 11 12 13 13 14 14 14 15 14 14 13 14 15 16 17 18 18 19 19 19 21 21 22 24 25 26 27 29
0 1 2 3 4 4 5 6 7 8 8 9 9 8 10 10 11 11 12 12 12 12 12 12 13 12 13 13 14 15 15 15 16 16 17 17 17 17 18 20 22 24 26 27
2 2 3 3 4 4 5 6 7 7 8 8 9 9 10 10 10 10 10 10 10 10 10 10 10 11 11 12 12 12 13 13 14 14 14 14 15 15 16 18 19 20 22 24
3 3 4 4 4 4 5 6 6 6 7 7 8 8 9 10 9 9 9 9 9 9 9 9 9 8 9 10 10 10 11 13 13 13 13 13 14 14 15 16 16 17 18 20
5 5 5 5 4 4 5 6 6 7 8 9 8 9 9 9 8 7 8 7 8 8 8 8 8 8 8 9 9 10 11 12 13 13 13 13 12 13 14 14 15 16 18 19
6 6 6 6 6 6 6 7 7 9 9 9 9 8 8 7 7 7 7 7 7 7 8 8 8 8 9 9 10 10 11 12 13 13 13 13 13 13 14 14 15 16 17 18
8 8 8 7 8 8 8 8 9 9 9 9 8 7 8 8 9 8 8 7 8 8 9 9 9 10 10 11 11 12 13 13 13 13 13 14 14 15 16 16 17 18 19 20
9 8 8 8 8 9 9 9 10 9 9 10 10 9 9 9 9 9 9 9 9 10 11 11 11 12 12 12 12 13 14 15 15 15 15 15 16 17 18 18 19 20 21 21
10 10 10 10 10 10 10 10 10 9 9 10 10 10 10 10 10 11 11 11 11 11 12 12 13 13 13 13 14 15 16 16 17 18 18 19 18 19 20 20 21 22 22 23
12 12 12 12 12 12 11 11 11 10 10 11 11 11 10 11 11 12 12 13 13 13 14 14 14 15 15 16 17 17 18 19 20 20 21 21 21 21 22 23 24 25 25 27
14 14 14 15 15 14 13 13 12 13 13 13 13 13 13 13 13 13 14 15 15 15 15 16 16 17 18 18 19 20 21 22 23 23 23 23 23 24 25 26 26 27 28 28
16 16 16 17 17 17 16 15 14 14 15 15 15 15 15 15 15 15 16 16 17 17 18 18 18 19 20 21 21 22 23 24 25 26 27 27 27 27 27 28 29 29 30 30
18 18 19 19 18 19 18 17 17 17 17 18 18 18 18 17 18 18 18 19 20 20 20 21 21 22 22 23 24 24 25 26 27 28 29 29 30 30 30 31 31 32 32 32
20 20 21 21 20 20 20 19 19 20 20 20 20 20 20 20 20 20 21 22 22 23 23 24 24 25 25 26 26 27 28 29 29 30 31 31 32 32 33 33 33 34 35 35
20 22 22 22 21 21 19 20 20 21 21 22 22 22 22 22 22 22 23 23 24 25 26 26 26 27 28 28 29 30 31 32 32 33 33 33 33 34 34 35 36 37 37 37
22 24 25 24 23 23 21 22 22 22 22 23 24 24 25 25 24 24 25 26 26 27 27 28 28 29 29 30 31 31 32 33 34 34 35 35 36 36 38 38 39 39 38 37
Wind_Direction
207 212 214 218 222 228 230 232 234 236 238 241 243 245 248 251 253 254 255 255 257 259 260 261 262 262 262 263 264 266 265 264 264 263 263 263 261 259 258 256 255 254 253 252
208 214 218 223 226 229 231 233 235 237 239 241 243 246 250 253 255 255 256 257 259 261 262 263 264 263 264 265 266 266 265 265 264 263 262 263 262 260 258 257 256 255 254 252
212 216 219 223 226 230 232 236 238 239 239 242 245 248 252 255 256 256 258 258 259 261 262 264 264 264 265 266 267 267 267 266 265 263 263 262 261 260 258 257 257 256 254 252
210 215 219 222 226 229 232 234 235 236 240 244 247 250 251 255 256 257 258 258 260 263 264 265 265 266 269 269 269 269 270 269 267 265 264 262 261 260 257 257 257 256 255 253
206 210 214 218 221 227 232 234 235 237 242 246 248 251 250 254 258 259 259 259 261 264 266 267 267 268 270 271 271 271 272 271 269 267 265 264 261 259 258 258 257 256 256 255
196 203 208 211 216 223 229 234 236 240 245 247 249 251 252 255 259 259 259 261 264 267 270 271 271 271 272 272 272 273 272 272 271 269 268 266 263 261 259 258 258 257 256 255
186 195 196 201 211 218 224 229 235 241 243 247 250 253 256 258 259 262 263 267 270 273 276 277 276 274 273 273 273 275 274 273 272 271 270 269 266 263 262 259 258 257 256 255
172 185 192 199 209 210 215 229 240 247 250 250 253 257 260 261 262 265 269 273 274 277 280 282 282 279 275 274 275 276 277 277 276 274 270 269 267 265 264 261 259 257 256 254
155 175 184 198 208 213 223 236 246 252 252 257 261 263 264 263 266 268 271 275 278 281 285 286 285 283 282 281 280 279 280 281 281 279 274 272 267 265 264 262 260 258 256 256
135 158 185 208 215 228 242 247 252 255 261 268 268 269 269 266 268 268 270 276 281 286 287 287 287 285 285 287 287 285 287 286 284 284 279 275 270 266 263 263 262 259 257 257
114 165 214 241 261 262 262 258 262 265 272 279 278 276 275 272 273 274 278 282 286 290 289 290 291 290 289 290 293 294 294 293 293 291 285 279 275 271 266 264 263 261 259 258
9 243 262 268 273 273 268 266 268 272 278 284 287 285 280 281 280 282 284 286 291 295 294 294 293 292 291 291 294 297 300 299 298 296 290 286 282 276 271 269 267 265 263 263
326 295 287 285 287 284 282 281 279 281 286 291 292 289 284 285 285 287 287 289 294 297 295 298 298 295 294 296 299 301 303 302 303 301 297 294 290 284 280 278 276 273 269 267
323 312 306 301 298 295 293 293 290 290 295 299 300 294 292 290 289 287 289 291 293 298 298 302 302 298 300 303 305 308 308 308 311 310 308 305 300 294 290 287 285 282 277 275
313 309 303 300 295 290 295 300 300 300 304 306 305 298 294 293 292 292 293 295 298 303 304 303 302 301 303 309 312 314 316 320 319 318 315 314 309 305 303 296 292 289 285 282
308 307 303 299 296 288 289 298 303 306 306 307 305 301 296 298 300 298 295 295 302 305 308 307 305 310 313 312 312 315 318 322 320 317 315 312 314 314 311 302 296 295 294 288
307 304 302 300 299 297 295 297 300 306 305 303 304 301 296 298 295 294 294 296 298 303 308 312 309 310 314 315 312 315 319 322 321 318 316 313 312 313 311 306 303 301 298 294
302 306 306 303 299 301 305 304 305 303 300 298 298 294 293 296 295 294 294 300 301 305 309 310 310 308 311 315 317 316 317 318 318 317 315 313 311 313 312 311 308 304 301 299
295 295 297 299 299 300 301 302 303 304 305 304 303 299 291 294 295 293 293 294 297 304 309 311 311 312 310 309 311 310 312 314 315 315 315 313 309 309 310 310 308 304 301 300
290 289 290 292 295 299 299 297 297 299 303 301 302 301 296 296 294 292 292 294 298 301 305 308 309 310 312 309 307 307 307 308 309 311 312 313 312 309 307 307 307 305 303 302
286 286 286 288 290 292 293 293 293 295 299 298 298 298 296 294 293 293 294 295 298 299 301 305 306 306 308 309 307 305 303 304 305 307 308 310 310 309 308 307 306 305 303 302
284 285 285 285 286 288 288 290 289 290 292 294 295 293 292 291 290 292 292 294 295 297 298 299 301 303 304 305 306 306 303 302 302 302 303 304 305 306 305 306 306 306 304 302
281 282 283 283 285 285 286 286 285 285 287 290 291 290 290 288 286 287 288 291 292 293 295 296 296 299 301 302 303 303 304 303 302 301 300 300 301 302 303 303 304 304 304 302
277 277 279 280 282 282 283 283 281 280 282 285 287 287 287 287 286 284 286 289 290 292 293 294 295 296 297 299 300 300 301 302 301 301 301 300 300 300 301 301 302 302 303 303
278 276 275 277 279 278 280 281 281 280 281 282 283 284 286 286 285 285 286 288 289 291 292 293 293 294 295 297 299 299 300 301 301 301 301 301 301 300 300 301 301 302 302 302
278 275 274 275 278 279 281 281 282 283 284 284 284 283 284 285 284 285 287 288 290 291 292 293 293 294 295 296 298 299 299 299 300 300 300 300 301 301 301 301 301 301 300 300
Height
5676 5681 5684 5688 5691 5695 5698 5701 5704 5707 5708 5711 5713 5715 5717 5718 5719 5720 5721 5722 5723 5723 5723 5723 5723 5723 5723 5723 5723 5723 5722 5722 5722 5722 5722 5723 5724 5725 5726 5727 5729 5731 5733 5736
5676 5679 5682 5685 5688 5691 5694 5697 5700 5702 5704 5706 5707 5709 5710 5711 5713 5713 5714 5715 5715 5715 5715 5715 5715 5714 5714 5713 5713 5712 5711 5711 5711 5711 5711 5711 5712 5712 5714 5715 5717 5719 5721 5723
5675 5678 5680 5683 5686 5689 5691 5694 5696 5698 5699 5700 5702 5704 5705 5705 5706 5706 5707 5707 5708 5708 5707 5707 5706 5706 5705 5704 5703 5702 5701 5700 5699 5699 5699 5699 5700 5700 5701 5702 5704 5706 5708 5710
5674 5677 5679 5681 5684 5686 5688 5690 5692 5694 5695 5696 5698 5699 5700 5700 5700 5700 5701 5701 5701 5700 5699 5698 5698 5697 5696 5694 5693 5692 5691 5689 5688 5688 5687 5687 5688 5689 5689 5691 5692 5693 5695 5698
5674 5676 5678 5680 5682 5684 5686 5687 5689 5690 5691 5692 5693 5693 5695 5694 5694 5695 5695 5694 5694 5693 5692 5691 5690 5689 5688 5686 5685 5683 5682 5680 5679 5677 5676 5676 5676 5677 5678 5679 5681 5682 5684 5686
5674 5675 5677 5679 5680 5682 5683 5685 5686 5686 5687 5689 5689 5689 5690 5690 5689 5689 5689 5688 5687 5687 5685 5684 5682 5681 5680 5679 5677 5675 5674 5672 5670 5668 5667 5666 5666 5666 5667 5668 5669 5671 5672 5674
5674 5675 5676 5677 5679 5680 5681 5683 5684 5684 5684 5685 5685 5684 5686 5685 5684 5684 5683 5682 5681 5680 5679 5677 5675 5674 5672 5671 5669 5667 5665 5663 5661 5660 5658 5657 5656 5656 5657 5658 5659 5660 5661 5663
5674 5676 5676 5677 5678 5678 5679 5680 5682 5682 5681 5681 5681 5680 5682 5680 5679 5678 5678 5677 5676 5674 5673 5671 5668 5666 5665 5663 5661 5660 5658 5656 5653 5652 5650 5648 5648 5647 5647 5648 5649 5650 5651 5653
5674 5676 5676 5676 5676 5677 5678 5678 5679 5679 5678 5678 5677 5677 5677 5676 5675 5674 5673 5672 5671 5669 5667 5665 5662 5660 5658 5656 5654 5653 5651 5649 5647 5644 5642 5641 5640 5639 5639 5639 5639 5640 5641 5643
5675 5676 5676 5676 5676 5676 5677 5676 5676 5676 5675 5675 5674 5674 5673 5672 5671 5670 5669 5668 5666 5664 5662 5659 5657 5655 5653 5651 5649 5647 5645 5643 5640 5638 5635 5633 5632 5631 5631 5630 5630 5631 5632 5633
5676 5676 5676 5675 5675 5675 5675 5675 5674 5673 5673 5672 5671 5673 5670 5668 5667 5666 5665 5663 5661 5659 5657 5654 5652 5650 5649 5647 5645 5643 5640 5638 5635 5632 5630 5627 5625 5624 5623 5623 5623 5623 5623 5624
5675 5676 5675 5675 5674 5673 5673 5672 5672 5672 5671 5669 5668 5671 5666 5665 5663 5662 5661 5659 5657 5655 5653 5651 5649 5647 5645 5643 5641 5639 5636 5633 5631 5627 5624 5622 5620 5618 5617 5616 5616 5616 5616 5616
5675 5675 5674 5674 5675 5673 5671 5670 5669 5669 5668 5666 5665 5668 5663 5661 5660 5659 5657 5656 5654 5652 5650 5648 5646 5644 5642 5640 5638 5635 5633 5630 5627 5624 5621 5618 5616 5614 5612 5611 5610 5609 5609 5608
5674 5674 5674 5674 5672 5670 5670 5669 5667 5666 5665 5664 5663 5662 5660 5658 5657 5656 5654 5652 5651 5649 5647 5645 5643 5641 5639 5637 5635 5633 5630 5627 5624 5621 5618 5615 5613 5611 5609 5607 5605 5604 5603 5602
5673 5673 5672 5671 5670 5668 5668 5667 5665 5664 5663 5661 5660 5658 5657 5655 5654 5653 5651 5650 5648 5647 5645 5642 5641 5639 5637 5635 5633 5630 5628 5625 5622 5619 5616 5613 5610 5608 5606 5604 5602 5601 5599 5598
5672 5671 5670 5669 5668 5666 5666 5665 5663 5662 5660 5659 5657 5656 5654 5653 5652 5650 5649 5647 5646 5644 5642 5640 5638 5637 5635 5633 5631 5628 5626 5623 5620 5617 5614 5611 5609 5606 5603 5601 5599 5597 5596 5593
5670 5669 5668 5667 5666 5665 5664 5663 5661 5659 5658 5656 5655 5655 5652 5651 5649 5648 5647 5645 5643 5642 5640 5638 5636 5634 5632 5631 5628 5626 5623 5620 5618 5615 5612 5609 5606 5604 5601 5598 5595 5593 5591 5589
5668 5667 5666 5665 5665 5663 5664 5660 5658 5657 5655 5654 5652 5651 5649 5648 5646 5645 5644 5642 5641 5639 5637 5635 5633 5632 5630 5627 5625 5623 5621 5618 5615 5612 5609 5606 5603 5600 5597 5594 5591 5588 5586 5583
5665 5664 5663 5662 5660 5660 5660 5657 5655 5654 5653 5651 5649 5648 5646 5645 5643 5642 5641 5639 5638 5636 5634 5632 5630 5628 5626 5624 5622 5620 5617 5615 5612 5609 5606 5603 5600 5596 5593 5590 5587 5584 5581 5578
5662 5661 5660 5658 5656 5656 5657 5654 5652 5652 5650 5649 5646 5645 5643 5642 5641 5640 5638 5636 5635 5633 5631 5629 5627 5624 5622 5620 5618 5616 5613 5611 5608 5605 5602 5599 5595 5592 5589 5586 5582 5579 5576 5572
5658 5657 5656 5654 5652 5652 5652 5650 5649 5649 5648 5645 5643 5641 5640 5638 5637 5636 5634 5632 5631 5629 5627 5625 5623 5620 5618 5616 5614 5611 5609 5606 5603 5600 5597 5594 5590 5587 5583 5580 5576 5573 5569 5566
5653 5652 5651 5649 5648 5650 5647 5645 5644 5644 5642 5640 5638 5637 5635 5634 5632 5631 5629 5628 5626 5624 5622 5620 5618 5616 5614 5611 5609 5606 5603 5601 5598 5594 5591 5588 5585 5581 5577 5574 5570 5566 5562 5558
5648 5647 5645 5645 5645 5643 5641 5640 5639 5637 5636 5635 5633 5632 5630 5629 5627 5626 5624 5623 5621 5619 5617 5615 5613 5611 5608 5606 5603 5600 5597 5594 5591 5588 5584 5581 5577 5574 5570 5566 5562 5558 5553 5549
5642 5640 5638 5637 5638 5636 5634 5633 5632 5631 5630 5629 5627 5626 5624 5623 5621 5620 5618 5617 5615 5613 5611 5609 5607 5604 5602 5599 5596 5593 5590 5587 5583 5580 5577 5573 5570 5566 5562 5558 5553 5549 5544 5540
5635 5632 5630 5630 5630 5629 5628 5626 5625 5624 5623 5622 5620 5619 5618 5616 5615 5613 5612 5610 5608 5606 5604 5602 5599 5597 5594 5592 5589 5585 5582 5579 5575 5572 5568 5564 5561 5557 5553 5548 5544 5539 5534 5529
5627 5625 5623 5623 5623 5622 5622 5620 5618 5617 5616 5615 5613 5612 5610 5609 5608 5606 5604 5602 5600 5598 5596 5594 5591 5589 5586 5583 5580 5577 5573 5570 5566 5563 5559 5555 5551 5547 5543 5538 5533 5528 5523 5518